Regional Weather Roundup
Issued by NWS Green Bay, WI

Home | Current Version | Previous Version | Text Only | Print | Product List | Glossary On
Versions: 1 2 3 4 5 6 7 8 9 10 11 12 13 14 15 16 17 18 19 20 21 22 23 24 25 26 27 28 29 30 31 32 33 34 35 36 37 38 39 40 41 42 43 44 45 46 47 48 49 50
000
ASUS43 KGRB 272300
RWRGRB

NORTH-CENTRAL AND NORTHEAST WISCONSIN REGIONAL WEATHER ROUNDUP
NATIONAL WEATHER SERVICE GREEN BAY WI
600 PM CDT SAT AUG 27 2016

WIZ005-009-010>012-018-019-280000-
NORTH CENTRAL WISCONSIN

CITY           SKY/WX    TMP DP  RH WIND       PRES   REMARKS
IRONWOOD       LGT RAIN  64  61  90 N3        30.03S
MANITOWISH WTR NOT AVBL
ARBOR VITAE    NOT AVBL
EAGLE RIVER    NOT AVBL
LAND O LAKES   NOT AVBL
RHINELANDER    CLOUDY    66  60  81 SE8       30.06R
PHILLIPS       RAIN      65  61  85 CALM      30.03R
ANTIGO         NOT AVBL
TOMAHAWK       NOT AVBL
MERRILL        CLOUDY    64  62  91 SE3       30.05S
$$

WIZ013-073-280000-
NORTHEAST WISCONSIN

CITY           SKY/WX    TMP DP  RH WIND       PRES   REMARKS
IRON MOUNTAIN  CLOUDY    65  58  78 S5        30.05R
MARINETTE      CLOUDY   N/A N/A N/A NE5       30.05R
$$

WIZ017-030-035>037-045-280000-
CENTRAL WISCONSIN

CITY           SKY/WX    TMP DP  RH WIND       PRES   REMARKS
MEDFORD        NOT AVBL
WAUSAU         CLOUDY    64  60  87 SE7       30.03S
MOSINEE        CLOUDY    63  63 100 E3        30.05S
MARSHFIELD     CLOUDY    65  61  87 SE7       30.04R
WISC RAPIDS    CLOUDY    66  63  90 E3        30.05R
STEVENS POINT  NOT AVBL
WAUPACA        NOT AVBL
SHAWANO        NOT AVBL
CLINTONVILLE   CLOUDY    64  61  88 CALM      30.04R
WAUTOMA        CLOUDY    66  63  90 E3        30.04R
$$

WIZ038-039-048-051-280000-
FOX VALLEY

CITY           SKY/WX    TMP DP  RH WIND       PRES   REMARKS
NWS GREEN BAY  CLOUDY    64  64 100 NE6       30.04R FOG
APPLETON       CLOUDY    64  64 100 VRB5      30.02S FOG
OSHKOSH        CLOUDY    66  64  93 N3        30.03R
FOND DU LAC    CLOUDY    68  65  90 N3        30.03R
$$

WIZ022-050-052-280000-
EAST CENTRAL WISCONSIN

CITY           SKY/WX    TMP DP  RH WIND       PRES   REMARKS
EPHRAIM        NOT AVBL
WASHINGTON ISL NOT AVBL
STURGEON BAY   CLOUDY    63  62  97 NE7       30.04S
MANITOWOC      NOT AVBL
SHEBOYGAN      CLOUDY    69  66  90 E6        30.02R
$$

LMZ563-521-522-541>543-280000-
LAKESHORE

STATION/POSITION TIME  TEMP    WIND        PRES    VSBY  WAVE
                       AIR SEA DIR/SP/G                  HT/PER
                 (UTC) (F)     (DEG/KT/KT) (MB)    (MI)  (FT/S)
SHEBOYGAN LKSHOR 2200   62      10/ 10/ 10 1015.9F
KEWAUNEE LKSHORE 2200   62      30/  5/  9 1016.2F
NORTHPORT PIER   2200   65      70/  7/  8 1017.3S
N MID LAKE BUOY  2150   65 70   70/ 10/ 12 1016.5F         1/ 3
CHAMBERS ISLAND  2200   66      60/  5/  7 1017.3S
MENOMINEE LKSHOR 2200   65      30/  5/  6 1016.3F
$$



USA.gov is the U.S. government's official web portal to all federal, state and local government web resources and services.